This is the latest recevied weather packets stored in our database for station/object K7FED. If no packets are shown the sender has not sent any weather packets the latest 10 day(s).
| Time | Temp. | Humidity | Pressure | Rain* | Wind** | Luminosity | Snow |
|---|---|---|---|---|---|---|---|
| 1777496339 | 25° C | 39% | 1014.5 hPa | 0 mm | - | 915 W/m² | - |
| 1777496039 | 25° C | 39% | 1014.6 hPa | 0 mm | - | 921 W/m² | - |
| 1777495739 | 25° C | 39% | 1014.6 hPa | 0 mm | - | 924 W/m² | - |
| 1777495440 | 25° C | 39% | 1014.6 hPa | 0 mm | - | 924 W/m² | - |
| 1777495140 | 24.44° C | 40% | 1014.6 hPa | 0 mm | - | 929 W/m² | - |
| 1777494839 | 25° C | 39% | 1014.7 hPa | 0 mm | - | 929 W/m² | - |
| 1777494539 | 25° C | 38% | 1014.7 hPa | 0 mm | - | 933 W/m² | - |
| 1777494240 | 25° C | 39% | 1014.8 hPa | 0 mm | - | 938 W/m² | - |
| 1777493939 | 24.44° C | 41% | 1014.8 hPa | 0 mm | - | 931 W/m² | - |
| 1777493640 | 24.44° C | 42% | 1014.9 hPa | 0 mm | - | 937 W/m² | - |
| 1777493340 | 24.44° C | 41% | 1015 hPa | 0 mm | - | 848 W/m² | - |
| 1777493040 | 24.44° C | 41% | 1015.1 hPa | 0 mm | - | 743 W/m² | - |
| 1777492737 | 23.89° C | 41% | 1015.1 hPa | 0 mm | - | 911 W/m² | - |
| 1777492437 | 23.89° C | 42% | 1015.1 hPa | 0 mm | - | 934 W/m² | - |
| 1777492138 | 23.89° C | 40% | 1015.2 hPa | 0 mm | - | 724 W/m² | - |
| 1777491835 | 23.89° C | 42% | 1015.2 hPa | 0 mm | - | 56 W/m² | - |
| 1777491535 | 23.89° C | 41% | 1015.2 hPa | 0 mm | - | 777 W/m² | - |
| 1777491234 | 23.89° C | 41% | 1015.3 hPa | 0 mm | - | 557 W/m² | - |
| 1777490934 | 23.89° C | 43% | 1015.4 hPa | 0 mm | - | 920 W/m² | - |
| 1777490634 | 23.89° C | 44% | 1015.6 hPa | 0 mm | - | 426 W/m² | - |
| 1777490334 | 23.89° C | 44% | 1015.6 hPa | 0 mm | - | 99 W/m² | - |
| 1777490034 | 23.89° C | 44% | 1015.7 hPa | 0 mm | - | 53 W/m² | - |
| 1777489735 | 23.33° C | 46% | 1015.8 hPa | 0 mm | - | 54 W/m² | - |
| 1777489434 | 23.89° C | 45% | 1015.9 hPa | 0 mm | - | 54 W/m² | - |
| 1777489135 | 23.33° C | 46% | 1015.9 hPa | 0 mm | - | 49 W/m² | - |
* Rain latest hour (hover to see other rain measurements)
** Current wind speed in m/s (hover to see current wind gust speed)